Tracking 28348 objects as of 9-Dec-2023
HD Live streaming from Space Station
objects crossing your sky now

MOLNIYA 1-S

Track MOLNIYA 1-S now!
MOLNIYA 1-S is classified as:


NORAD ID: 7392
Int'l Code: 1974-060A
Perigee: 35,735.7 km
Apogee: 35,819.0 km
Inclination: 3.7 °
Period: 1,435.3 minutes
Semi major axis: 42148 km
RCS: 1.5848 m2 (large)
Launch date: July 29, 1974
Source: Commonwealth of Independent States (former USSR) (CIS)
Launch site: TYURATAM MISSILE AND SPACE COMPLEX (TTMTR)
Your satellite tracking list
Your tracking list is empty




NASA's NSSDC Master Catalog

Two Line Element Set (TLE):
1 07392U 74060A   23342.86361106 -.00000241  00000-0  00000-0 0  9991
2 07392   3.7431 274.2345 0009874 233.8808 334.1642  1.00330235124937
Source of the keplerian elements: AFSPC